CZ-6A DEB

Satellite information

Favourite Embed

Satellite Type and Status

DEBRISIN ORBIT

Key statistics

Satellite CZ-6A DEB at a glance.

Uptime

276

Days in orbit

Revolutions

≈ 14.1

Per day

Orbit

LEO

Low Earth Orbit

Inclination

89.0

Latest

Satellite identification and parameters

Extended collection of information and parameters for CZ-6A DEB.

Object identification

Identified? True

Debris? True

Object name: CZ-6A DEB

International designator: 2024-140XJ

Object number (NORAD): 61393

Object ID (CCSDS): 61393

Country: PEOPLES REPUBLIC OF CHINA (PRC)

Current information (Y/N): Y

RCS size: SMALL

Orbital parameters

Period: 101.943 minutes

Inclination: 89.0042 deg

SMA: 7228.783 km

Apoapsis: 916.201 km

Periapsis: 785.096 km

RAAN: 320.9149 deg

Eccentricy: 0.0090683

Argument of periapsis: 88.8685 deg

Mean anomaly: 272.2889 deg

Mean motion: 14.12553641 rev/day

Mean motion (dot): 0.00003239 rev/day2

B* drag term: 0.0016777 1/REarth

Two-line elements (TLE)

Creation date: May 7, 2025, 7:16 a.m.

Reference frame: TEME

Reference center: EARTH

Epoch: May 6, 2025, 10:29 p.m. UTC

TLE line 0: 0 CZ-6A DEB

TLE line 1: 1 61393U 24140XJ 25126.93712342 .00003239 00000-0 16777-2 0 9997

TLE line 2: 2 61393 89.0042 320.9149 0090683 88.8685 272.2889 14.12553641 34326

Live tracking on map

Real-time ground track for satellite CZ-6A DEB.

In-orbit conjunctions

A list of the most updated potential collisions computed for object CZ-6A DEB.

Target Orbit TCA Probability of collision Miss distance Type
COSMOS 1275 DEB LEO 2025-01-17 21:23:23 0.0001042627 801.0 (m) DEBRIS
CZ-6A DEB LEO 2025-01-15 14:52:49 0.0001718595 577.0 (m) DEBRIS
COSMOS 1275 DEB LEO 2024-10-05 08:27:20 0.0002649192 367.0 (m) DEBRIS

Associated space launch

18 Low Earth Orbit communication satellites with Ku, Q and V band payloads for the G60 constellation operated by Shanghai Spacecom Satellite Technology (SSST) with funding backed by the Shanghai local government. Initial constellation will consist of 1296 satellites by 2027 with long term plans to expand it to 12000 satellites.

CZ-6A DEB was lifted into orbit during the mission ‘Long March 6A | G60 Polar Group 01’, on board a Long March 6A space rocket.

The launch took place on Aug. 6, 2024, 6:42 a.m. from Launch Complex 9A.

For more information about the launch, click the button.

Launch to space Long March 6A | G60 Polar Group 01
Long March 6A | G60 Polar Group 01

Agency: N/A

Status: Launch Successful

Launch date: Aug. 6, 2024, 6:42 a.m. UTC

Rocket: Long March 6A

Launch pad: Launch Complex 9A

Location: Taiyuan Satellite Launch Center, People's Republic of China

...

Latest news about this satellite

News about space launch
Brightness of first Chinese broadband constellation satellites alarms astronomers

The first satellites of a Chinese broadband constellation are significantly brighter than those of Western systems, posing a new challenge for astronomers.

News about space launch
Chinese rocket stage breaks up into cloud of more than 700 pieces of space debris

HELSINKI — A Chinese Long March 6A rocket’s upper stage has fragmented into a cloud of over 700 pieces of space debris, adding to concerns about long-term orbital safety. China […]

News about space launch
China's Thousand Sails Megaconstellation Kicks Off with Dangerous Debris Field

China's Thousand Sails Megaconstellation Kicks Off with Dangerous Debris Field


Newsletter sign-up

Weekly statistics, charts and insights to help you stay on top of the space industry.